Location: Buckenweiler
(49.0667°N, 10.2500°E)
Time: 15:37:54
(UTC+00:00)

NOAA 12 - Visible Passes

Search period start: 11 April 2026 00:00
Search period end: 21 April 2026 00:00
Orbit: 793 x 812 km, 98.6° (Epoch: 11 April)

Date Brightness Start Highest point End Pass type
(mag) Time Alt. Az. Time Alt. Az. Time Alt. Az.
12 Apr 5.9 03:47:26 10° NNE 03:52:16 35° E 03:57:03 10° SSE visible
13 Apr 6.7 03:22:08 10° NE 03:26:10 22° E 03:30:11 10° SE visible
14 Apr 7.0 02:57:29 10° ENE 02:59:58 13° E 03:02:25 10° ESE visible
16 Apr 6.0 03:43:51 10° NNE 03:48:35 33° E 03:53:16 10° SSE visible
17 Apr 6.7 03:18:35 10° NE 03:22:28 20° E 03:26:18 10° SE visible
18 Apr 7.1 02:54:09 10° ENE 02:56:14 12° E 02:58:19 10° ESE visible
20 Apr 6.1 03:40:15 10° NNE 03:44:53 30° E 03:49:28 10° SSE visible
